Weather History for TJSJ - April, 2013

Change the Weather History Date:

Tuesday, April 9, 2013

  Actual Average Record
Temperature  
Mean Temperature 82 °F 80 °F  
Max Temperature 88 °F 86 °F 91 °F (1956)
Min Temperature 76 °F 74 °F 65 °F (1956)
Degree Days  
Heating Degree Days 0 0  
Month to date heating degree days 0 0  
Since 1 July heating degree days 0 0  
Cooling Degree Days 17 15  
Month to date cooling degree days 156 135  
Year to date cooling degree days 1407 1317  
Growing Degree Days 32 (Base 50)    
Moisture  
Dew Point 72 °F    
Average Humidity 77    
Maximum Humidity 94    
Minimum Humidity 59    
Precipitation  
Precipitation 0.35 in 0.15 in 3.54 in (1925)
Month to date precipitation 0.52 1.06  
Year to date precipitation 6.56 9.16  
Sea Level Pressure  
Sea Level Pressure 30.02 in    
Wind  
Wind Speed 10 mph (East)    
Max Wind Speed 23 mph    
Max Gust Speed 28 mph    
Visibility 10 miles    
Events Rain    
T = Trace of Precipitation, MM = Missing Value Source: NWS Daily Summary

Daily Weather History Graph

Daily Weather History Graph

Search for Another Location

Airport or City:

Trip Planner

Search our weather history database for the weather conditions in past years. The results will help you decide how hot, cold, wet, or windy it might be!

Date:

Astronomy

Apr. 09, 2013 Rise Set
Actual Time 6:11 AM AST 6:39 PM AST
Civil Twilight 5:49 AM AST 7:01 PM AST
Nautical Twilight 5:23 AM AST 7:27 PM AST
Astronomical Twilight 4:57 AM AST 7:53 PM AST
Moon 5:28 AM AST (4/9) 6:10 PM AST (4/9)
Length of Visible Light 13h 12m
Length of Day
12h 27m
Waning Crescent, 1% of the Moon is Illuminated
Apr 9
Waning Crescent
Apr 10
New
Apr 18
First Quarter
Apr 25
Full
May 2
Last Quarter

Hourly Weather History & Observations

Time (AST) Temp. Heat Index Dew Point Humidity Pressure Visibility Wind Dir Wind Speed Gust Speed Precip Events Conditions
12:56 AM 78.1 °F - 73.0 °F 84% 30.03 in 10.0 mi East 5.8 mph - 0.00 in   Mostly Cloudy
1:56 AM 75.9 °F - 73.0 °F 91% 30.01 in 10.0 mi SSE 3.5 mph - 0.01 in   Overcast
2:56 AM 77.0 °F - 73.0 °F 88% 29.99 in 10.0 mi ESE 3.5 mph - N/A   Mostly Cloudy
3:56 AM 77.0 °F - 72.0 °F 84% 29.98 in 10.0 mi East 6.9 mph - 0.00 in Rain Light Rain
4:56 AM 75.9 °F - 72.0 °F 87% 29.99 in 10.0 mi SE 4.6 mph - 0.01 in   Mostly Cloudy
5:56 AM 77.0 °F - 72.0 °F 84% 30.01 in 10.0 mi ESE 5.8 mph - 0.00 in Rain Light Rain
6:56 AM 77.0 °F - 73.0 °F 88% 30.03 in 10.0 mi ESE 4.6 mph - 0.00 in Rain Light Rain
7:56 AM 79.0 °F - 73.9 °F 84% 30.05 in 10.0 mi SE 4.6 mph - 0.12 in   Scattered Clouds
8:56 AM 81.0 °F 85.8 °F 73.0 °F 77% 30.07 in 10.0 mi East 11.5 mph - N/A   Scattered Clouds
9:56 AM 82.0 °F 86.7 °F 72.0 °F 71% 30.07 in 10.0 mi East 15.0 mph - N/A   Scattered Clouds
10:56 AM 86.0 °F 92.2 °F 72.0 °F 63% 30.07 in 10.0 mi ENE 13.8 mph 18.4 mph N/A   Scattered Clouds
11:56 AM 87.1 °F 93.6 °F 72.0 °F 61% 30.05 in 10.0 mi ENE 15.0 mph - N/A   Scattered Clouds
12:56 PM 86.0 °F 92.2 °F 72.0 °F 63% 30.03 in 10.0 mi East 17.3 mph - N/A   Scattered Clouds
1:56 PM 86.0 °F 92.2 °F 72.0 °F 63% 30.00 in 10.0 mi ENE 19.6 mph 27.6 mph N/A   Scattered Clouds
2:56 PM 86.0 °F 93.0 °F 73.0 °F 65% 29.98 in 10.0 mi ENE 16.1 mph 24.2 mph N/A   Scattered Clouds
3:56 PM 84.9 °F 90.7 °F 72.0 °F 65% 29.97 in 10.0 mi NE 17.3 mph 21.9 mph N/A   Scattered Clouds
4:56 PM 84.0 °F 87.8 °F 69.1 °F 61% 29.96 in 10.0 mi ENE 19.6 mph - N/A   Scattered Clouds
5:56 PM 82.0 °F 87.4 °F 73.0 °F 74% 29.98 in 10.0 mi ENE 16.1 mph - 0.01 in   Scattered Clouds
6:56 PM 80.1 °F 83.8 °F 72.0 °F 76% 30.00 in 10.0 mi East 10.4 mph - 0.01 in   Scattered Clouds
7:56 PM 79.0 °F - 72.0 °F 79% 30.02 in 10.0 mi East 10.4 mph - 0.01 in   Scattered Clouds
8:56 PM 79.0 °F - 73.0 °F 82% 30.04 in 10.0 mi East 6.9 mph - 0.00 in   Scattered Clouds
9:56 PM 78.1 °F - 73.0 °F 84% 30.05 in 10.0 mi East 6.9 mph - 0.21 in   Scattered Clouds
10:56 PM 77.0 °F - 72.0 °F 84% 30.05 in 10.0 mi SE 3.5 mph - N/A   Scattered Clouds
11:56 PM 78.1 °F - 73.0 °F 84% 30.04 in 10.0 mi ESE 3.5 mph - N/A   Mostly Cloudy